DW9167 Weather Reports


Display with metric or nautical units.
time (UTC)temp
F
wind
direction
speed
MPH
gust
MPH
rain 1hr
in
rain 24hr
in
rain mn
in
humidity
%
barometer
mb
20260903105213 78 180 0.0 0.0 0.00 0.00 0.00 97 1005.2
20260903104216 78 157 1.0 2.0 0.00 0.00 0.00 97 1005.2
20260903104117 78 172 2.0 5.0 0.00 0.00 0.00 97 1005.2
20260903103115 78 73 1.0 5.0 0.00 0.00 0.00 97 1005.2
20260903102115 78 162 2.0 6.0 0.00 0.00 0.00 97 1005.2
20260903101213 78 157 2.0 6.0 0.00 0.00 0.00 97 1005.2
20260903100214 78 180 0.0 3.0 0.00 0.00 0.00 97 1005.2
20260903095215 78 165 1.0 6.0 0.00 0.00 0.00 97 1005.2
20260903094314 78 96 1.0 4.0 0.00 0.00 0.00 97 1005.2
20260903093316 78 268 0.0 1.0 0.00 0.00 0.00 97 1005.2
20260903092415 78 160 1.0 6.0 0.00 0.00 0.00 97 1005.6
20260903091414 78 166 2.0 6.0 0.00 0.00 0.00 96 1005.6
20260903090416 78 140 0.0 5.0 0.00 0.00 0.00 96 1005.6
20260903085413 78 157 0.0 0.0 0.00 0.00 0.00 96 1005.6
20260903084416 78 180 0.0 0.0 0.00 0.00 0.00 96 1005.6
20260903083515 78 167 2.0 5.0 0.00 0.00 0.00 96 1005.6
20260903082514 78 180 0.0 1.0 0.00 0.00 0.00 95 1005.6
20260903080516 78 178 0.0 2.0 0.00 0.00 0.00 95 1005.2
20260903075515 78 150 0.0 4.0 0.00 0.00 0.00 95 1005.2
20260903074514 79 180 1.0 4.0 0.00 0.00 0.00 94 1005.6
20260903073514 79 176 0.0 3.0 0.00 0.00 0.00 93 1005.6
20260903071514 79 180 2.0 7.0 0.00 0.00 0.00 92 1005.6
20260903070517 79 176 0.0 2.0 0.00 0.00 0.00 91 1005.6
20260903063513 80 154 1.0 2.0 0.00 0.00 0.00 87 1005.6
20260903062514 80 179 2.0 8.0 0.00 0.00 0.00 85 1005.6
20260903061517 80 173 2.0 5.0 0.00 0.00 0.00 83 1005.6
20260903060614 80 166 0.0 4.0 0.00 0.00 0.00 81 1005.6
20260903055615 80 163 3.0 6.0 0.00 0.00 0.00 79 1005.6
20260903054613 81 216 2.0 6.0 0.00 0.00 0.00 77 1005.6
20260903053614 81 167 0.0 4.0 0.00 0.00 0.00 75 1005.2
20260903052615 81 158 3.0 8.0 0.00 0.00 0.00 74 1005.2
20260903051614 81 151 1.0 5.0 0.00 0.00 0.00 74 1005.6
20260903050713 81 191 1.0 9.0 0.00 0.00 0.00 74 1005.4
20260903045719 81 160 2.0 6.0 0.00 0.00 0.00 74 1005.2
20260903043718 81 168 0.0 2.0 0.00 0.00 0.00 73 1005.2
20260903042717 81 112 2.0 5.0 0.00 0.00 0.00 74 1005.2
20260903041718 81 135 0.0 2.0 0.00 0.00 0.00 76 1005.2
20260903040719 81 135 2.0 4.0 0.00 0.00 0.00 76 1005.2
20260903034718 82 156 2.0 6.0 0.00 0.00 0.00 74 1005.2
20260903033719 83 112 2.0 4.0 0.00 0.00 0.00 71 1005.0
20260903032719 84 100 2.0 5.0 0.00 0.00 0.00 68 1004.7
20260903030720 85 112 0.0 0.0 0.00 0.00 0.00 63 1004.3
20260903025718 85 154 0.0 4.0 0.00 0.00 0.00 63 1004.0
20260903024719 85 157 0.0 0.0 0.00 0.00 0.00 62 1003.6
20260903023719 86 157 0.0 0.0 0.00 0.00 0.00 61 1003.3
20260903021819 87 112 1.0 2.0 0.00 0.00 0.00 59 1002.8
20260903020819 87 67 0.0 0.0 0.00 0.00 0.00 57 1002.8
20260903014819 87 67 0.0 2.0 0.00 0.00 0.00 56 1002.1
20260903013917 88 67 0.0 0.0 0.00 0.00 0.00 55 1002.1
20260903012919 88 67 0.0 0.0 0.00 0.00 0.00 54 1002.1
20260903012018 88 73 0.0 2.0 0.00 0.00 0.00 54 1002.1
20260903011020 88 67 0.0 2.0 0.00 0.00 0.00 53 1002.1
20260903010019 89 67 0.0 0.0 0.00 0.00 0.00 53 1002.1
20260903005020 89 67 2.0 4.0 0.00 0.00 0.00 52 1002.1
20260903004019 90 45 0.0 0.0 0.00 0.00 0.00 51 1001.7
20260903002117 92 90 2.0 3.0 0.00 0.00 0.00 47 1001.7
20260903001119 94 52 2.0 6.0 0.00 0.00 0.00 44 1001.4
20260903000119 96 67 1.0 3.0 0.00 0.00 0.00 45 1001.1
20260902235119 98 315 0.0 2.0 0.00 0.00 0.00 41 1000.7
20260902234119 98 318 1.0 3.0 0.00 0.00 0.00 39 1000.7
20260902233118 98 160 0.0 4.0 0.00 0.00 0.00 40 1000.7
20260902232117 98 308 3.0 6.0 0.00 0.00 0.00 38 1000.7
20260902231118 98 135 0.0 0.0 0.00 0.00 0.00 41 1000.7
20260902230117 100 178 1.0 5.0 0.00 0.00 0.00 39 1000.4
20260902225120 100 180 2.0 4.0 0.00 0.00 0.00 39 1000.4
20260902224217 100 260 2.0 5.0 0.00 0.00 0.00 39 1000.4
20260902223221 99 248 1.0 4.0 0.00 0.00 0.00 41 1000.7
20260902222219 98 281 1.0 5.0 0.00 0.00 0.00 41 1000.7
20260902221219 99 180 0.0 0.0 0.00 0.00 0.00 40 1000.7
20260902220218 99 253 2.0 6.0 0.00 0.00 0.00 40 1000.4
20260902215218 100 183 1.0 4.0 0.00 0.00 0.00 39 1000.0
20260902214316 101 191 0.0 3.0 0.00 0.00 0.00 38 1000.4
20260902212322 101 257 2.0 5.0 0.00 0.00 0.00 39 1000.7
20260902211319 98 180 0.0 1.0 0.00 0.00 0.00 41 1001.1
20260902210417 99 179 2.0 4.0 0.00 0.00 0.00 40 1001.1
20260902204418 97 156 1.0 5.0 0.00 0.00 0.00 43 1002.1
20260902203517 95 143 0.0 0.0 0.00 0.00 0.00 44 1002.1
20260902202518 95 309 1.0 6.0 0.00 0.00 0.00 43 1002.4
20260902202419 95 315 0.0 0.0 0.00 0.00 0.00 44 1002.4
20260902201418 95 315 1.0 5.0 0.00 0.00 0.00 44 1002.8
20260902200417 95 157 0.0 0.0 0.00 0.00 0.00 43 1002.4
20260902195419 95 158 0.0 2.0 0.00 0.00 0.00 43 1002.8
20260902194419 94 270 0.0 0.0 0.00 0.00 0.00 46 1003.2
20260902193420 95 270 1.0 4.0 0.00 0.00 0.00 43 1003.2
20260902192418 95 342 0.0 0.0 0.00 0.00 0.00 44 1002.8
20260902191419 97 165 1.0 4.0 0.00 0.00 0.00 43 1002.8
20260902190517 97 177 1.0 4.0 0.00 0.00 0.00 42 1003.2
20260902185520 97 292 1.0 4.0 0.00 0.00 0.00 43 1003.2
20260902184617 98 291 2.0 7.0 0.00 0.00 0.00 42 1003.2
20260902183619 98 271 0.0 3.0 0.00 0.00 0.00 41 1003.5
20260902182618 97 180 2.0 6.0 0.00 0.00 0.00 43 1003.8
20260902175719 96 325 1.0 5.0 0.00 0.00 0.00 44 1004.9
20260902173718 95 128 0.0 3.0 0.00 0.00 0.00 47 1005.1
20260902171720 95 313 1.0 5.0 0.00 0.00 0.00 46 1005.4
20260902170817 94 165 1.0 3.0 0.00 0.00 0.00 48 1005.6
20260902165819 94 306 0.0 2.0 0.00 0.00 0.00 47 1005.6
20260902164917 92 270 0.0 2.0 0.00 0.00 0.00 51 1006.2
20260902163919 93 1 1.0 4.0 0.00 0.00 0.00 51 1005.9
20260902162918 91 302 4.0 10.0 0.00 0.00 0.00 52 1006.2
20260902162017 91 321 4.0 7.0 0.00 0.00 0.00 54 1006.2
20260902160017 88 292 0.0 1.0 0.00 0.00 0.00 62 1006.9
20260902155018 87 306 1.0 4.0 0.00 0.00 0.00 63 1006.9
20260902153019 84 315 0.0 4.0 0.00 0.00 0.00 72 1007.6
20260902152020 83 351 2.0 5.0 0.00 0.00 0.00 73 1007.6
20260902151018 82 336 1.0 4.0 0.00 0.00 0.00 74 1007.6
20260902145018 82 308 4.0 5.0 0.00 0.00 0.00 75 1007.6
20260902144019 82 311 3.0 6.0 0.00 0.00 0.00 74 1007.6
20260902143117 82 222 1.0 5.0 0.00 0.00 0.00 76 1007.6
20260902142120 81 179 2.0 5.0 0.00 0.00 0.00 79 1008.0
20260902141117 81 53 0.0 4.0 0.00 0.00 0.00 80 1008.0
20260902140117 80 148 1.0 4.0 0.00 0.00 0.00 83 1008.0
20260902135119 79 163 1.0 5.0 0.00 0.00 0.00 83 1008.0
20260902134118 79 182 0.0 2.0 0.00 0.00 0.00 84 1008.0
20260902132117 77 180 0.0 0.0 0.00 0.00 0.00 88 1008.3
20260902131119 76 180 0.0 3.0 0.00 0.00 0.00 89 1008.0
20260902130118 76 180 0.0 0.0 0.00 0.00 0.00 90 1008.3
20260902125217 76 180 0.0 0.0 0.00 0.00 0.00 91 1008.0
20260902124217 75 180 0.0 0.0 0.00 0.00 0.00 91 1008.0
20260902123316 75 270 0.0 0.0 0.00 0.00 0.00 91 1008.0
20260902122317 75 270 0.0 0.0 0.00 0.00 0.00 91 1007.6
20260902114419 76 180 0.0 0.0 0.00 0.00 0.00 90 1007.6
20260902113419 76 180 0.0 0.0 0.00 0.00 0.00 90 1007.6
20260902112420 75 180 0.0 0.0 0.00 0.00 0.00 89 1007.6
20260902111416 76 180 0.0 0.0 0.00 0.00 0.00 90 1007.6